FENGYUN 1C DEB

Satellite information

Favourite Embed

Satellite Type and Status

DEBRISIN ORBIT

Key statistics

Satellite FENGYUN 1C DEB at a glance.

Uptime

9493

Days in orbit

Revolutions

≈ 14.2

Per day

Orbit

SSO

Sun Synchronous Orbit

Inclination

99.1

Latest

Satellite identification and parameters

Extended collection of information and parameters for FENGYUN 1C DEB.

Object identification

Identified? True

Debris? True

Object name: FENGYUN 1C DEB

International designator: 1999-025BVE

Object number (NORAD): 31466

Object ID (CCSDS): 31466

Country: PEOPLES REPUBLIC OF CHINA (PRC)

Current information (Y/N): Y

RCS size: SMALL

Orbital parameters

Period: 101.536 minutes

Inclination: 99.0752 deg

SMA: 7209.529 km

Apoapsis: 1047.502 km

Periapsis: 615.285 km

RAAN: 31.0642 deg

Eccentricy: 0.0299754

Argument of periapsis: 271.0822 deg

Mean anomaly: 85.6028 deg

Mean motion: 14.18216156 rev/day

Mean motion (dot): 0.00001267 rev/day2

B* drag term: 0.00041259 1/REarth

Two-line elements (TLE)

Creation date: April 17, 2025, 6:03 p.m.

Reference frame: TEME

Reference center: EARTH

Epoch: April 16, 2025, 11:56 p.m. UTC

TLE line 0: 0 FENGYUN 1C DEB

TLE line 1: 1 31466U 99025BVE 25106.99781010 .00001267 00000-0 41259-3 0 9994

TLE line 2: 2 31466 99.0752 31.0642 0299754 271.0822 85.6028 14.18216156929305

Live tracking on map

Real-time ground track for satellite FENGYUN 1C DEB.

In-orbit conjunctions

A list of the most updated potential collisions computed for object FENGYUN 1C DEB.

Target Orbit TCA Probability of collision Miss distance Type
CZ-6A DEB LEO 2024-11-13 10:49:52 0.0002949712 655.0 (m) DEBRIS
SSC LEO 2024-09-17 04:22:28 0.0001012015 451.0 (m) PAYLOAD

Associated space launch

Chinese polar orbiting meteorological satellite

FENGYUN 1C DEB was lifted into orbit during the mission ‘Long March 4B | Feng Yun 1C’, on board a Long March 4B space rocket.

The launch took place on May 10, 1999, 1:33 a.m. from Launch Complex 7.

For more information about the launch, click the button.

Launch to space Long March 4B | Feng Yun 1C
Long March 4B | Feng Yun 1C

Agency: N/A

Status: Launch Successful

Launch date: May 10, 1999, 1:33 a.m. UTC

Rocket: Long March 4B

Launch pad: Launch Complex 7

Location: Taiyuan Satellite Launch Center, People's Republic of China

...

Latest news about this satellite

There are no fresh news available about this satellite. Check back as we update our databases every day.


Newsletter sign-up

Weekly statistics, charts and insights to help you stay on top of the space industry.